RH
30 30 30 30 29 29 32 31 30 31 30 28 30 35 36 37 38 38 39 38 39 39 45 46 38 35 37 38 37 36 38 37 39 42 42 40 44 47 43 44 44 43 41 36 33 27 22 21 24 24 13 7 10 16 18 13 10 6 5 6 6 7 7 8 10 12 11 12 12 13 13 19 32 38 41 39 48 56 48 44 37 27 23 22 21 20 22 20 17 23 36 41 37 34 33 31 29
29 30 30 29 30 29 30 31 30 29 30 29 28 36 40 41 41 39 37 37 40 40 42 43 36 37 40 36 34 34 34 33 31 30 33 34 36 40 41 43 43 43 43 39 35 30 23 22 24 26 17 8 10 14 18 13 6 5 6 6 7 7 7 8 10 11 11 11 12 13 13 21 33 36 41 41 46 58 52 45 41 33 27 24 23 21 23 25 22 17 23 37 43 41 38 36 34
29 29 30 29 29 29 28 30 29 28 29 29 26 30 36 39 39 37 37 36 39 39 39 40 38 38 37 34 33 33 31 32 38 37 31 31 36 39 41 40 40 42 43 41 36 31 24 23 26 26 20 9 9 13 17 14 5 5 6 6 7 7 8 9 10 11 11 11 12 12 14 24 34 33 40 43 45 58 59 51 46 41 34 29 27 25 24 26 27 23 17 23 38 46 44 41 39
28 28 29 29 29 29 28 28 28 27 26 28 27 28 36 40 37 34 35 34 37 37 37 39 39 36 33 33 34 31 29 37 45 41 33 32 38 40 38 35 37 41 43 42 36 30 24 24 28 28 22 11 7 11 16 14 6 5 6 7 7 8 8 10 10 10 10 11 12 12 16 27 34 31 38 46 47 56 63 61 57 51 44 37 32 29 26 26 29 30 24 17 24 40 48 46 43
29 29 29 28 29 28 28 27 27 26 25 26 27 28 36 41 38 34 34 37 36 35 36 37 38 37 32 30 33 31 29 38 40 35 35 34 38 40 36 34 34 37 39 37 32 27 25 28 31 29 23 12 7 9 15 15 7 6 7 7 8 8 9 10 9 10 11 11 12 13 19 30 33 30 37 48 49 55 64 67 68 66 60 51 41 35 31 27 28 33 32 22 17 27 43 49 46
32 31 30 30 30 29 27 26 26 25 23 25 27 30 40 43 41 37 35 42 40 32 34 35 35 36 31 26 32 35 27 30 34 30 35 35 35 38 35 33 31 32 32 30 28 28 29 32 32 30 24 13 7 7 13 15 8 6 7 7 8 9 10 10 9 11 12 12 13 15 23 32 31 27 36 49 50 53 63 68 72 74 74 69 57 45 37 31 27 32 37 31 21 18 30 44 49
36 34 34 33 32 33 30 27 25 24 22 24 25 26 33 34 38 43 39 44 45 33 31 34 34 32 28 23 27 32 26 28 35 33 36 39 34 34 34 32 31 30 30 31 31 32 34 34 32 29 23 13 7 6 12 15 9 7 7 7 9 10 10 10 10 11 12 13 14 18 27 32 29 26 33 46 50 51 61 68 71 75 78 80 74 60 47 39 29 28 36 38 30 21 20 30 43
40 39 38 37 35 34 33 31 27 26 22 23 25 23 23 22 34 45 39 40 44 35 28 31 31 30 29 25 23 24 28 35 41 41 39 40 37 35 35 32 32 32 34 36 35 35 34 33 31 27 21 12 6 5 12 15 9 7 8 7 9 10 11 10 11 12 14 14 16 21 28 31 27 25 30 42 47 50 59 65 69 74 79 82 82 75 63 52 38 27 31 39 37 31 26 23 29
43 42 41 41 38 36 35 34 32 30 26 24 25 23 22 20 33 42 36 37 39 31 26 28 27 27 30 28 25 21 28 35 38 41 38 38 38 35 34 33 33 34 36 35 34 34 32 30 28 25 19 11 6 5 13 15 9 8 8 8 10 11 11 11 11 13 15 16 20 24 28 28 24 23 28 37 43 47 55 60 64 70 76 82 83 82 76 67 53 35 27 33 39 38 36 32 28
44 43 43 43 41 39 36 36 34 33 31 29 26 25 25 21 29 36 34 39 34 26 26 29 26 25 27 25 25 24 28 33 34 37 39 40 38 35 34 32 33 34 34 33 32 31 29 28 24 22 16 9 5 6 14 15 10 9 8 8 11 12 12 11 12 14 17 20 22 26 27 25 21 22 27 32 36 43 52 53 56 63 71 79 83 82 79 75 67 49 32 29 35 38 38 38 37
41 41 41 42 42 40 37 37 35 35 34 33 31 29 28 23 27 33 36 37 29 26 28 29 29 28 28 25 25 26 28 32 34 36 38 39 38 36 35 33 34 36 34 32 30 29 27 25 21 18 13 7 4 7 16 16 11 10 8 9 12 12 11 11 13 17 20 21 22 25 25 22 20 21 25 28 30 38 48 45 43 56 72 78 80 80 76 73 70 59 43 32 32 36 38 38 38
34 35 36 35 38 39 36 36 35 36 35 34 35 31 30 30 31 35 37 33 28 30 31 31 33 31 30 28 27 28 29 31 33 36 37 37 37 35 34 34 35 36 33 30 29 27 25 23 19 15 10 6 4 8 17 16 12 10 8 10 12 12 11 12 16 19 21 20 20 23 23 20 19 20 23 25 26 35 43 39 32 48 72 77 76 77 73 68 65 60 50 38 33 34 38 40 40
25 28 29 25 26 32 32 32 33 33 33 33 34 32 31 33 35 38 36 29 30 34 33 33 34 32 32 31 32 31 31 33 34 36 37 37 36 34 33 33 34 35 31 28 27 25 23 20 16 12 7 5 4 10 18 17 13 10 9 10 12 11 11 14 18 19 18 18 19 22 21 19 19 20 22 23 24 31 39 34 25 37 62 69 67 69 70 65 58 54 49 44 39 37 40 44 47
19 21 23 20 16 20 23 24 26 27 29 29 29 29 30 32 36 37 31 28 32 31 30 32 31 31 34 32 33 32 32 32 31 31 32 34 34 31 32 31 31 34 30 25 23 21 19 16 13 9 6 4 5 12 19 18 14 11 9 10 11 10 12 17 19 17 15 17 20 20 19 18 19 20 21 22 22 29 35 32 23 24 41 51 49 54 64 65 56 52 51 50 46 42 45 49 54
18 18 18 17 14 13 14 14 18 20 22 26 27 27 29 31 33 30 26 27 27 22 21 25 24 25 29 28 27 27 25 24 22 22 22 24 26 25 26 26 28 30 27 21 18 16 15 12 9 6 5 4 6 15 20 19 15 11 9 11 10 10 15 18 16 14 14 17 19 19 18 19 20 20 20 20 22 28 31 29 23 17 23 32 32 35 52 63 61 58 56 53 48 44 48 54 59
18 20 19 16 15 12 11 10 11 13 16 24 27 25 28 30 25 22 20 19 15 12 12 15 15 16 17 18 18 18 16 14 13 14 14 14 16 18 21 22 23 25 21 15 12 12 10 8 7 5 5 5 10 19 21 20 16 9 9 11 10 12 16 16 14 12 14 16 17 17 17 19 20 20 20 20 22 27 29 26 20 15 14 18 18 20 36 55 63 62 59 57 53 48 52 57 62
14 18 19 17 16 14 13 11 11 20 27 26 20 17 24 27 18 12 10 9 8 7 8 8 9 10 9 10 12 12 11 13 14 13 12 10 11 16 19 19 17 15 12 9 9 8 7 6 5 6 5 6 15 21 22 20 14 9 10 11 11 14 17 14 12 12 13 15 15 16 17 19 20 20 20 20 23 27 29 25 17 13 12 11 10 10 18 37 54 61 62 63 62 58 59 61 65
9 11 13 14 15 16 15 15 16 27 38 32 20 16 22 21 12 7 6 5 6 6 7 7 7 7 6 7 12 14 11 16 22 20 17 13 17 22 19 14 9 7 6 6 6 5 5 5 5 6 5 9 18 22 23 19 12 9 10 11 12 15 16 13 12 13 13 14 15 16 18 18 19 21 20 19 22 27 28 22 15 12 10 8 7 7 7 14 29 46 58 64 67 67 66 66 68
7 6 7 8 10 13 15 18 19 25 33 31 29 27 25 18 9 7 7 7 8 8 8 7 5 6 5 5 12 17 16 20 26 24 22 21 25 25 15 8 5 5 5 4 5 5 5 5 5 5 6 13 21 23 22 17 10 9 10 11 13 15 14 12 12 13 13 14 15 16 18 18 18 18 19 20 22 27 28 19 13 11 9 7 6 6 5 5 8 18 34 47 58 66 67 67 65
7 6 5 5 6 8 11 17 22 31 35 34 38 31 19 14 9 9 10 11 13 13 13 9 5 5 5 6 12 17 18 22 20 16 19 24 24 18 9 5 4 4 4 4 4 6 7 6 5 5 8 17 23 23 21 16 11 9 11 11 14 15 13 13 13 13 14 14 15 16 17 17 16 16 17 19 21 26 26 17 12 10 8 7 6 6 5 6 5 6 12 21 34 45 50 51 47
9 7 5 5 4 6 7 12 25 38 35 31 37 27 11 11 11 13 15 15 15 17 21 18 10 6 6 8 11 13 14 17 17 14 14 17 15 9 5 4 4 4 4 5 5 6 7 5 4 6 11 20 24 24 22 18 13 11 11 12 15 15 13 13 13 13 14 14 15 17 17 16 15 15 16 18 22 25 23 15 12 10 8 9 10 8 7 6 6 6 7 10 15 18 21 24 23
12 8 7 6 5 5 6 20 36 35 25 20 22 18 9 9 11 14 17 16 17 16 20 23 13 6 8 7 7 8 8 11 16 14 10 10 9 5 4 4 4 5 5 6 6 7 6 4 5 8 13 21 25 26 24 21 16 13 12 13 15 15 13 13 14 14 14 14 15 16 15 15 14 14 15 17 21 25 22 15 11 11 10 11 12 9 9 9 8 8 7 8 8 7 7 7 7
15 11 10 7 7 6 9 33 41 19 10 8 8 10 6 5 7 9 13 15 20 20 27 37 21 5 9 7 6 9 7 10 15 14 11 8 6 6 6 4 4 4 5 7 6 7 6 5 6 8 14 21 26 28 26 23 20 16 14 14 15 15 14 13 14 14 14 15 15 15 14 13 13 14 14 16 24 27 22 17 15 15 12 14 17 14 13 14 15 16 14 11 8 7 5 4 4
18 15 13 10 8 7 8 24 25 6 3 4 3 5 2 4 4 3 8 11 19 21 26 40 25 7 12 11 7 6 6 13 14 12 12 8 7 8 6 6 5 4 5 6 6 6 5 5 6 7 12 19 26 29 26 24 24 22 17 14 15 15 14 14 15 14 15 15 15 15 15 14 12 13 15 22 39 42 31 26 25 19 13 16 22 22 20 19 18 20 20 15 11 8 5 5 5
18 17 17 13 10 9 6 9 9 4 4 4 3 5 3 3 3 2 5 6 16 21 18 24 20 13 17 17 12 6 6 12 11 11 13 18 20 13 8 7 6 5 5 6 6 6 5 4 6 8 11 17 25 27 26 26 27 27 21 15 15 15 15 14 15 15 15 15 16 17 17 16 14 14 18 31 52 57 47 40 31 19 10 11 15 17 18 17 13 12 11 9 7 6 4 5 5
18 18 19 17 13 10 8 6 6 5 4 4 4 4 3 3 3 3 3 3 10 19 17 15 17 20 23 26 22 11 7 8 10 16 20 28 28 13 9 8 6 7 5 6 7 6 7 5 7 8 9 17 25 27 28 28 29 30 24 16 15 16 16 15 15 15 16 16 16 19 20 19 17 17 23 39 59 59 48 36 21 12 7 6 7 7 8 7 6 4 3 3 4 5 3 3 4
19 19 19 19 17 12 9 8 6 5 4 5 5 4 4 3 3 2 3 2 6 18 21 16 17 19 23 31 29 16 12 13 19 32 35 40 36 14 8 9 6 7 5 6 7 7 7 5 6 8 14 24 30 31 31 30 31 31 24 17 15 17 16 14 15 15 16 16 17 21 24 21 19 20 25 39 52 47 33 19 9 6 5 4 4 5 4 3 3 3 3 3 3 3 3 3 4
20 19 20 20 19 15 11 9 7 5 4 5 5 4 4 3 3 3 3 1 7 21 23 19 19 21 26 32 29 22 24 30 37 44 43 46 42 18 6 9 7 7 7 6 7 7 7 8 10 15 25 33 34 36 34 32 34 32 25 18 16 17 16 15 15 15 16 16 19 27 28 23 18 19 26 34 36 29 18 10 5 4 4 4 4 4 4 3 3 3 3 3 3 2 3 2 3
21 19 19 19 20 17 12 9 7 6 5 5 5 4 4 4 3 2 4 4 7 14 15 18 25 28 31 31 28 28 35 47 54 50 47 53 46 21 7 9 9 7 7 7 8 10 10 11 16 26 36 37 36 37 36 37 39 36 28 22 18 17 16 16 15 15 17 17 24 33 31 23 18 16 23 28 25 20 13 8 6 4 4 3 3 3 3 3 3 3 3 3 3 2 2 2 2
23 21 19 19 20 18 14 11 8 7 6 5 5 5 4 3 4 2 3 4 6 12 15 18 27 32 31 32 30 25 29 44 55 55 60 69 54 26 12 10 10 8 8 10 12 14 14 18 27 36 39 38 37 36 37 40 41 39 35 28 22 18 17 16 16 16 17 21 31 38 33 23 18 16 20 24 22 17 11 8 6 4 4 3 3 3 3 3 3 3 3 3 3 2 3 2 2
23 22 20 19 19 19 18 14 10 8 7 6 5 5 4 4 4 4 4 4 6 18 29 29 33 38 37 42 45 39 40 44 53 63 71 75 59 35 22 15 12 12 15 17 17 17 18 24 32 32 31 34 35 36 38 39 38 40 41 37 30 22 19 17 18 21 22 31 39 38 33 24 17 15 19 23 21 15 10 7 5 4 4 3 4 4 3 4 3 3 3 3 3 3 3 3 3
24 23 20 19 18 20 20 17 13 9 7 7 6 5 5 5 3 5 11 7 5 15 31 34 33 47 54 57 61 54 52 50 52 68 74 71 62 46 37 28 19 16 18 21 20 19 20 23 25 24 28 33 36 38 38 37 37 39 41 42 35 26 22 22 23 25 28 37 40 36 32 23 15 14 19 24 23 17 11 7 6 6 5 5 6 5 4 3 3 3 3 3 3 3 3 2 3
24 23 21 20 19 20 21 19 15 11 9 7 7 6 4 5 2 8 15 8 7 17 27 24 22 47 60 63 67 53 53 60 60 74 80 78 77 65 55 47 38 33 28 25 20 19 25 29 26 26 30 33 35 37 39 43 39 37 43 43 36 30 26 29 32 34 38 41 39 36 29 20 13 14 18 22 21 16 11 9 7 8 9 9 8 6 4 3 3 3 3 4 3 3 3 3 3
23 23 22 22 18 20 21 20 19 12 10 8 6 6 4 6 3 6 14 8 16 32 33 25 20 31 41 55 68 57 63 75 70 80 87 86 90 82 74 69 62 55 47 42 42 40 38 33 27 28 30 32 36 37 41 50 44 38 46 47 42 36 31 35 39 41 47 48 44 37 25 19 16 15 16 15 15 12 10 14 13 10 11 10 7 5 4 4 4 4 4 4 4 3 3 3 3
23 23 22 22 19 21 19 21 29 21 11 8 7 7 4 5 4 7 16 12 24 45 44 37 31 23 29 59 75 62 66 73 67 82 93 87 89 86 84 81 71 60 51 51 62 61 48 37 36 37 36 38 45 50 51 53 51 47 47 47 45 40 44 52 49 49 60 65 65 53 30 22 18 15 14 11 12 11 10 15 14 10 11 8 5 4 4 4 4 4 4 4 4 3 3 3 3
27 25 23 23 19 21 19 22 38 33 15 10 7 6 6 6 5 10 22 22 25 43 49 43 38 23 23 57 75 63 62 67 67 80 89 84 84 86 83 78 71 61 53 55 64 65 58 53 51 47 43 45 56 67 65 59 60 58 53 49 44 48 64 71 64 64 77 85 79 59 34 23 17 10 9 8 10 11 9 9 8 6 8 6 4 4 4 4 4 4 4 4 4 3 3 3 3
30 28 24 23 21 20 20 22 40 42 22 12 9 6 7 7 6 6 20 39 38 37 42 43 42 29 25 48 61 53 52 62 73 82 86 80 78 81 78 73 71 62 53 58 67 70 74 75 66 55 52 60 74 77 65 57 58 57 56 50 47 58 65 65 66 63 72 83 67 40 25 19 14 8 7 7 6 7 6 6 5 4 5 5 4 5 5 5 5 4 4 4 4 3 3 3 3
31 32 27 22 20 21 23 22 35 47 33 20 11 5 8 7 11 10 10 31 44 42 48 54 56 48 36 37 39 38 40 50 70 86 91 84 78 78 75 74 75 63 49 51 67 80 85 85 77 69 65 71 81 78 69 67 63 59 61 58 57 61 52 48 61 61 69 77 52 25 18 13 11 10 9 9 7 7 7 6 6 5 5 5 5 5 6 5 5 4 4 4 4 4 4 3 3
31 36 40 32 21 21 29 30 32 43 46 37 15 5 19 16 10 16 10 14 28 43 59 64 65 60 45 35 34 40 48 54 66 79 85 81 74 71 67 67 65 60 55 57 74 90 93 91 84 78 73 66 68 75 83 88 79 67 66 67 62 55 48 51 63 70 77 67 35 17 15 11 13 13 11 12 10 10 9 7 6 6 6 6 6 6 6 6 6 5 5 5 5 4 4 4 3
30 32 44 49 39 25 31 41 36 36 49 50 30 17 27 21 10 16 16 15 19 30 50 56 55 55 50 49 46 45 53 64 70 73 79 80 74 67 61 59 55 59 72 74 75 82 92 99 92 83 74 63 68 83 92 92 86 77 71 69 63 57 60 65 72 80 71 44 21 16 15 13 15 14 14 14 11 10 9 7 7 7 8 7 7 8 7 7 7 7 7 7 7 7 6 6 4
32 27 35 55 58 37 33 44 40 43 52 46 43 40 25 14 18 18 13 20 23 22 36 48 53 51 44 43 40 35 40 53 64 71 76 80 79 72 66 66 65 69 76 73 73 82 92 98 91 84 78 71 78 90 90 86 86 86 81 74 71 70 70 70 74 72 51 26 17 16 15 16 17 15 15 13 10 10 9 9 9 8 9 9 9 9 9 10 10 10 11 11 11 11 10 9 8
33 27 30 52 67 49 37 43 42 50 52 32 32 46 32 16 20 18 12 22 23 18 33 49 52 46 34 30 29 28 30 34 48 64 72 78 82 78 74 74 73 77 76 68 78 96 99 95 86 83 84 80 85 94 93 87 87 89 87 81 79 78 77 78 75 58 35 23 19 17 17 17 17 16 15 13 12 11 11 11 10 11 11 11 11 11 11 12 13 13 14 14 14 14 13 12 11
33 28 27 46 67 55 36 40 46 46 45 34 22 30 40 35 26 22 22 24 19 17 36 50 48 42 33 29 28 27 27 24 33 55 72 82 86 81 77 77 76 81 77 67 77 92 95 92 85 83 85 86 91 97 95 89 86 88 86 81 80 82 84 83 70 48 31 24 19 18 19 18 18 17 15 14 14 12 12 12 12 13 13 13 13 13 14 14 15 16 15 16 16 15 15 14 14
33 29 24 33 53 56 41 39 46 43 46 46 26 16 32 44 41 39 39 35 24 22 36 45 47 49 42 34 30 26 23 21 26 47 71 83 85 81 81 85 88 87 79 71 72 76 79 79 78 80 84 87 92 94 91 85 79 80 79 77 81 86 84 74 60 44 32 25 21 20 19 19 19 17 16 15 14 13 13 14 14 14 14 14 15 15 15 16 16 16 16 16 16 16 16 16 16
33 30 26 24 36 49 44 38 40 46 57 50 26 13 17 33 47 50 51 46 31 30 44 44 40 48 51 41 32 25 21 22 29 49 72 83 81 76 74 76 80 79 73 69 66 66 72 73 73 77 78 83 90 89 86 81 77 77 77 77 83 83 73 63 53 41 31 24 21 21 21 22 21 19 17 15 14 14 14 15 15 15 15 15 16 16 16 17 16 17 17 17 17 16 17 16 16
34 32 31 22 26 40 43 44 41 45 60 50 31 21 8 19 41 36 36 42 36 39 49 47 40 45 52 47 33 23 20 23 33 51 66 71 68 62 57 57 62 65 63 62 64 69 74 74 74 79 81 83 85 84 83 83 81 79 77 77 76 70 63 58 50 38 30 24 22 24 24 25 24 21 19 16 16 16 15 16 16 16 17 16 17 17 17 17 17 18 18 18 18 18 18 17 17
33 37 49 33 21 32 42 50 49 47 56 46 38 38 17 17 36 24 16 26 31 39 42 39 43 47 48 45 36 26 22 23 28 40 48 49 49 48 46 54 65 69 66 67 72 76 75 71 72 81 86 85 85 86 88 87 84 78 71 68 64 61 60 56 46 36 29 24 23 26 27 28 28 24 20 18 18 17 17 17 17 17 17 17 18 18 18 19 19 19 20 20 20 20 19 19 18
33 36 61 51 26 29 39 49 55 53 52 37 37 52 39 27 32 23 19 20 20 31 38 34 38 44 45 45 42 33 28 30 29 32 39 39 37 39 42 55 68 73 73 74 76 76 73 68 70 82 89 89 89 90 87 82 75 64 56 55 57 59 59 50 42 35 29 26 26 28 30 31 30 25 21 19 18 18 18 18 18 18 18 19 19 19 20 20 21 21 22 22 22 23 23 22 21
38 31 53 63 42 30 32 42 50 53 56 48 42 53 52 43 33 21 24 27 21 24 33 38 39 39 42 44 42 37 34 36 33 32 35 32 31 35 37 43 56 66 71 73 73 69 67 67 71 82 92 92 88 84 82 73 60 49 46 49 53 54 50 42 37 32 29 28 29 30 32 32 29 24 19 18 18 18 18 19 19 19 20 21 21 22 23 23 24 25 26 27 28 28 28 27 26
42 33 51 76 64 36 26 33 39 46 58 57 48 47 47 49 48 38 29 24 25 27 24 34 43 36 34 37 37 39 40 40 40 38 34 29 29 31 29 30 39 49 56 60 62 59 60 67 72 79 87 88 84 79 75 63 49 46 49 50 50 48 45 39 35 34 34 35 35 36 36 32 26 21 18 19 19 19 20 20 21 22 22 24 25 26 27 27 29 30 31 33 34 34 34 34 33
42 38 54 77 69 42 25 24 34 45 50 44 42 47 46 52 64 61 44 26 28 37 28 27 39 38 31 32 35 35 32 36 46 44 33 27 25 23 22 23 26 30 33 36 45 53 60 67 70 73 78 78 77 73 64 53 50 56 59 55 52 51 49 46 44 45 46 46 45 42 38 32 25 21 21 23 23 23 24 24 25 27 28 29 31 31 32 33 34 36 37 38 39 39 39 39 39
39 48 66 68 55 47 34 25 34 47 48 37 33 45 54 61 68 62 52 41 31 34 33 30 34 37 31 27 31 30 24 34 50 47 35 25 21 19 20 21 20 21 27 34 46 58 66 70 69 71 74 72 67 63 57 55 58 61 63 62 60 59 59 58 57 58 57 54 49 44 40 35 29 27 27 28 28 29 30 30 32 34 36 37 38 39 39 40 40 41 41 41 41 41 41 41 41
43 56 63 53 49 60 56 41 37 41 46 40 30 42 56 59 59 51 43 44 40 34 31 31 33 35 34 31 33 33 30 39 45 38 31 25 20 19 19 18 17 21 37 51 56 58 63 70 72 74 78 75 67 61 58 59 62 65 68 71 70 68 67 68 66 64 61 56 51 48 45 41 37 35 35 34 34 33 34 36 38 41 42 43 43 43 43 43 43 42 42 42 42 41 42 41 40
50 54 51 56 69 75 69 61 52 42 44 44 38 45 51 47 47 46 36 30 36 40 30 27 32 31 35 42 43 38 36 37 32 24 24 24 19 17 16 16 16 20 35 45 47 53 62 69 72 74 79 80 74 68 66 69 72 74 77 77 76 75 73 73 70 66 63 60 57 54 50 47 44 42 41 39 38 38 39 41 43 44 45 45 45 44 43 41 41 40 39 40 41 41 41 40 39
47 60 63 70 72 63 64 74 69 54 42 36 40 49 51 53 49 42 37 29 31 42 40 35 35 26 28 41 41 34 30 29 25 19 20 20 17 15 15 16 17 18 21 24 38 57 67 68 67 67 69 73 74 71 71 74 77 79 80 80 82 83 80 78 73 69 66 60 54 50 48 47 46 45 45 45 44 44 44 45 46 47 46 45 44 42 41 40 38 38 38 38 40 40 40 39 38
45 71 73 59 47 42 55 72 74 70 54 33 37 51 53 60 52 32 31 33 30 38 43 40 37 30 31 37 32 28 27 25 21 19 18 18 16 16 15 15 18 18 16 21 44 65 70 68 66 63 61 63 66 66 65 67 71 76 78 80 83 85 82 79 75 71 63 54 48 47 47 48 48 48 49 49 49 49 49 49 49 48 47 46 44 43 42 40 38 38 38 38 39 39 39 38 36
43 69 76 55 40 41 51 64 73 80 74 49 39 48 52 58 56 43 37 32 29 36 40 37 36 35 35 32 27 28 30 26 21 19 18 17 16 15 15 16 16 17 21 35 57 72 73 70 68 68 68 67 65 63 64 67 71 73 71 70 74 79 80 79 75 66 56 50 49 50 50 50 50 52 52 53 53 53 52 51 50 49 49 47 46 46 43 40 39 39 39 39 40 39 37 36 35
37 61 82 61 42 46 49 53 65 77 83 72 51 43 50 59 61 54 45 39 36 37 39 37 33 31 29 28 28 30 31 28 23 19 18 17 17 16 16 17 16 17 26 42 57 64 66 68 70 71 73 75 74 71 73 76 76 73 68 66 68 72 75 76 71 63 57 54 54 52 52 53 54 56 56 57 57 56 54 52 52 52 52 50 50 48 45 43 42 42 42 42 41 39 38 36 34
Wind_Speed
33 32 32 31 31 29 27 28 27 25 26 28 24 19 18 12 13 16 15 18 19 24 30 25 25 24 24 27 29 31 27 27 28 26 27 26 26 26 25 22 22 22 20 21 20 20 20 20 21 22 22 19 18 17 17 15 13 13 13 13 12 12 13 14 15 16 17 18 18 18 19 20 20 21 20 20 20 19 17 14 12 12 12 12 11 10 10 10 9 8 8 9 9 9 9 9 9
34 33 32 32 31 30 28 29 30 28 28 30 27 22 19 17 16 16 19 22 21 32 39 33 29 25 20 22 28 34 31 29 28 27 26 26 27 28 25 21 22 22 20 21 21 20 20 20 21 22 22 20 18 18 17 16 14 13 13 13 12 12 13 13 15 16 17 17 17 17 18 19 19 20 20 19 19 18 17 15 13 13 12 12 12 12 11 10 10 9 8 8 8 9 9 9 9
35 33 33 33 31 31 29 30 31 29 31 32 30 26 20 17 13 13 20 24 26 34 37 34 29 25 19 21 28 33 32 29 26 26 26 26 27 27 24 21 22 22 21 20 21 20 20 20 21 21 22 20 18 18 17 16 14 13 13 12 12 12 12 13 14 15 16 16 16 17 17 18 18 19 20 19 18 17 16 15 14 13 13 13 13 13 12 11 10 9 8 7 7 8 8 9 9
35 34 34 34 33 33 31 32 33 32 34 33 32 28 20 16 13 15 26 29 32 33 35 37 31 28 24 26 33 33 32 29 26 26 26 25 25 26 23 21 21 21 20 20 20 20 19 20 21 22 22 21 19 18 18 17 14 13 13 12 12 12 12 13 14 14 15 15 15 16 17 17 17 18 19 18 17 17 16 15 15 14 14 13 13 13 12 12 11 10 10 8 7 7 7 8 9
35 35 35 35 34 34 34 35 36 35 36 33 32 28 21 17 11 12 25 34 36 37 41 41 35 36 33 30 34 35 33 30 29 28 26 24 25 25 22 20 21 20 19 19 19 19 19 20 21 22 22 21 19 18 18 17 15 13 13 12 12 11 12 13 13 13 14 14 15 15 16 16 17 17 18 17 17 16 16 15 15 15 14 14 13 13 13 12 11 11 11 10 8 7 7 7 7
36 36 36 36 35 35 36 37 38 37 36 34 32 28 23 22 17 17 26 34 34 39 42 42 38 37 37 32 31 34 36 33 30 28 25 25 26 24 21 20 20 18 17 18 18 19 20 21 22 23 23 22 20 18 18 17 15 13 13 12 11 11 12 12 13 13 14 14 14 15 15 15 16 17 17 16 16 16 15 15 15 15 15 14 13 13 12 12 11 11 11 11 10 9 8 8 7
37 37 37 37 36 36 38 39 38 38 35 34 35 33 29 29 25 27 36 34 34 42 40 40 39 33 37 37 33 34 37 34 30 27 24 25 25 22 20 19 19 17 16 18 19 20 21 23 23 24 23 22 20 19 18 17 15 13 13 12 12 11 12 12 12 12 13 13 14 14 15 15 16 16 16 15 15 16 15 15 15 15 15 15 14 12 12 12 11 10 11 11 11 11 10 10 9
40 39 38 39 39 38 40 40 38 38 36 34 36 35 33 29 24 30 40 37 37 44 37 34 35 30 37 41 36 35 34 32 29 26 24 24 23 20 20 19 18 17 17 20 21 21 23 24 25 24 24 22 20 19 18 17 15 14 13 12 12 11 12 12 12 12 12 13 13 14 14 14 15 16 15 15 15 15 15 15 15 15 14 14 14 12 11 11 10 10 10 11 11 11 11 11 10
42 41 40 40 41 41 42 41 39 39 35 34 35 33 33 27 28 34 35 37 42 45 34 29 31 28 35 43 39 35 32 31 29 27 25 25 23 21 21 20 18 17 20 23 22 23 25 26 26 25 25 23 20 19 18 16 15 14 13 12 12 12 12 12 11 11 12 12 13 13 13 13 15 15 15 15 15 15 15 15 14 14 14 14 14 12 11 10 10 10 10 10 11 11 11 11 11
45 45 43 42 43 45 45 44 41 39 36 35 34 33 32 27 30 28 27 42 44 35 28 26 30 28 34 43 40 35 32 33 31 29 28 27 26 24 24 21 18 20 23 25 24 25 26 27 27 26 25 23 20 18 18 16 16 14 13 12 12 12 12 12 11 11 11 12 12 13 13 13 14 14 15 15 14 14 14 14 14 14 15 14 13 12 11 10 10 9 10 10 11 11 11 12 12
48 47 46 46 46 48 47 46 43 40 39 36 35 34 32 28 27 25 34 48 33 22 25 27 30 29 35 43 39 35 32 33 32 31 31 31 29 28 28 25 22 24 26 27 27 27 27 29 28 27 25 22 19 18 17 17 16 15 13 13 12 12 11 11 11 11 11 11 12 12 12 12 13 14 14 14 14 14 13 13 14 14 14 14 13 12 11 10 9 9 9 10 10 11 12 12 12
48 48 48 48 48 50 48 48 46 43 41 38 39 35 30 30 27 30 48 50 28 22 27 27 32 33 39 45 40 36 33 33 33 34 35 35 33 32 32 30 28 28 29 31 30 29 29 29 29 27 25 22 19 17 18 17 16 15 14 13 12 12 11 11 11 10 10 11 11 11 11 12 13 13 13 14 14 13 13 13 13 14 14 14 14 13 11 10 8 8 8 9 10 10 11 11 12
48 47 49 49 48 49 48 48 47 45 43 41 40 31 27 31 29 41 55 44 30 30 31 31 36 38 43 47 43 40 37 37 38 39 41 40 39 38 36 34 34 33 33 33 31 31 30 30 30 27 24 21 18 18 18 17 16 15 14 13 12 11 11 11 11 10 10 11 10 10 10 11 12 12 13 13 13 13 12 12 13 13 13 14 14 14 12 10 8 8 8 8 9 9 10 11 11
46 45 46 48 47 47 47 47 46 44 43 41 39 31 27 30 36 53 55 40 34 35 37 38 40 45 47 48 48 46 43 43 44 45 45 45 44 44 42 39 38 37 37 35 33 32 31 30 30 27 24 20 18 18 18 17 17 15 14 12 12 11 11 11 11 11 10 10 10 9 10 11 11 12 12 12 12 12 12 12 12 12 12 13 14 14 14 12 9 8 7 8 8 8 9 10 11
44 43 44 46 45 46 44 43 42 42 39 31 28 30 34 41 49 56 51 41 39 37 40 41 42 47 48 50 51 49 48 46 46 46 46 46 46 46 44 42 40 40 39 36 34 32 31 30 28 25 22 19 17 18 18 18 16 15 13 12 11 11 10 11 12 12 11 10 9 9 9 10 11 11 11 11 11 11 12 12 12 12 12 12 13 14 14 13 11 9 9 8 8 8 9 10 12
44 43 44 45 44 44 42 39 38 38 34 24 26 34 38 46 51 53 49 42 38 36 39 40 40 44 47 51 49 46 45 42 42 43 43 43 43 43 42 41 39 39 38 35 34 31 30 28 25 22 20 18 17 18 18 18 16 15 13 12 11 10 10 11 12 12 10 9 10 9 9 10 11 11 11 11 11 11 11 12 12 12 11 11 12 12 13 13 13 12 12 11 9 8 9 11 13
43 44 44 46 45 43 40 37 32 27 24 25 36 41 40 44 46 48 44 36 33 31 34 35 34 41 45 46 41 39 39 35 35 37 37 38 38 38 37 36 35 35 35 33 32 29 27 25 22 21 18 17 18 18 18 17 16 14 13 12 11 10 10 12 12 12 11 10 10 10 10 10 10 10 10 10 11 10 10 11 11 12 12 12 12 12 12 12 13 13 14 13 11 10 10 12 13
42 43 45 46 45 43 40 36 32 24 18 24 36 42 43 45 44 44 37 29 30 28 30 33 33 41 42 36 32 32 33 31 30 31 32 33 32 32 32 32 32 32 32 31 28 26 25 23 21 19 18 18 19 19 18 17 15 14 13 12 11 10 10 12 12 12 12 11 11 10 10 10 10 10 10 10 10 10 10 10 11 11 11 12 12 12 12 11 12 12 13 13 12 10 9 11 12
42 42 42 43 42 42 39 37 35 26 18 22 34 44 46 44 41 41 36 29 28 26 30 34 33 39 38 30 29 29 29 28 28 27 27 28 27 28 30 31 30 29 29 27 25 23 22 21 20 18 17 18 19 18 17 16 15 13 13 12 11 11 11 12 12 12 12 11 11 10 9 9 9 10 10 10 10 10 10 10 10 10 11 12 12 12 12 12 11 11 11 11 11 10 9 10 11
42 41 41 39 38 38 37 37 31 22 21 25 35 50 50 43 36 34 35 30 27 26 30 34 34 36 35 30 30 29 27 26 27 27 25 26 26 27 29 29 28 27 26 24 23 21 20 19 18 17 18 18 19 18 16 16 15 14 13 12 12 11 12 12 12 12 12 12 12 10 10 9 9 9 9 10 10 9 9 9 9 10 11 11 12 13 13 13 12 12 11 10 10 10 9 10 11
44 41 39 36 34 34 35 32 27 28 38 43 43 53 51 38 31 31 35 32 28 27 28 34 36 34 34 32 31 31 27 26 27 27 27 27 27 27 27 27 26 25 23 22 21 19 18 18 17 17 18 18 18 17 16 16 15 15 14 13 12 13 12 12 12 12 12 12 11 11 10 9 9 9 9 10 10 9 9 8 9 10 10 11 12 13 13 13 13 12 12 11 10 10 10 11 11
45 41 38 35 33 33 29 23 26 37 46 48 47 54 50 33 32 38 37 32 27 28 28 32 37 34 33 33 34 33 29 28 27 28 29 28 28 27 25 24 23 22 21 20 19 18 17 17 17 17 18 18 18 17 17 17 16 15 15 14 13 14 13 12 12 12 12 12 11 11 11 10 10 10 10 9 9 9 8 8 8 9 10 11 11 12 13 13 13 12 12 12 11 12 12 13 13
46 41 38 36 34 32 27 25 33 43 43 42 42 48 44 31 36 40 37 34 28 28 29 31 38 36 33 35 36 34 31 29 29 30 31 31 29 26 24 23 22 21 20 19 18 17 16 16 17 17 18 19 18 18 18 18 16 17 16 15 15 15 14 13 12 12 12 11 11 12 12 12 12 11 11 9 7 7 7 7 7 8 9 10 10 11 12 13 13 14 13 13 13 14 15 16 16
46 41 39 37 34 32 31 33 41 44 37 31 32 37 36 30 34 33 33 36 30 30 34 34 40 37 33 36 37 35 32 32 32 33 35 33 30 26 24 23 21 20 19 18 16 15 15 16 17 18 19 19 18 18 19 18 18 18 17 16 16 16 15 14 13 12 11 12 12 13 13 13 13 12 11 10 6 6 7 7 7 7 8 9 9 10 11 12 13 13 14 14 14 15 17 18 18
46 42 39 38 35 34 36 38 42 41 33 27 30 33 32 29 29 27 30 35 32 34 38 39 43 37 32 36 37 36 35 36 36 37 38 35 29 25 24 22 20 20 19 17 15 15 16 16 18 19 20 19 19 20 20 19 19 19 18 17 18 16 15 15 14 13 13 13 14 14 14 13 13 13 12 10 7 6 7 8 8 7 7 8 8 8 9 10 11 12 13 15 16 16 18 19 20
47 43 40 39 37 36 37 39 41 41 33 30 33 34 31 28 28 26 29 32 31 35 41 42 45 39 31 34 36 37 39 40 40 40 40 35 29 25 24 22 21 20 20 18 16 16 16 17 18 19 20 20 21 21 20 20 20 19 18 18 18 17 17 17 16 15 14 15 15 16 15 13 13 13 12 11 8 6 7 8 8 7 6 7 7 8 8 9 10 12 14 15 16 17 18 19 20
47 43 40 39 38 38 38 39 42 41 35 33 34 33 31 29 30 28 27 29 28 35 43 43 44 41 34 34 38 40 43 44 43 41 37 34 29 25 23 22 21 21 20 19 18 17 17 17 18 20 21 22 22 21 21 20 20 19 18 19 18 18 19 18 17 17 16 16 16 16 15 14 14 13 12 11 9 7 7 7 7 6 6 7 8 8 9 10 11 12 14 15 16 17 18 19 19
48 44 42 41 40 40 41 42 43 40 36 34 34 33 32 31 31 27 26 27 27 35 44 43 44 42 36 37 41 43 43 42 40 36 34 34 30 24 23 22 21 21 20 20 18 17 17 17 19 22 22 22 22 21 21 20 19 19 19 20 19 19 20 20 19 18 17 16 17 16 15 14 13 12 11 10 9 7 7 7 6 7 7 7 8 9 10 11 12 13 14 15 16 16 17 18 19
49 46 45 45 42 42 43 43 42 39 37 35 34 34 33 31 29 26 27 28 30 39 44 43 43 42 40 42 43 42 39 36 34 33 34 35 31 26 24 23 21 21 21 19 16 16 18 19 22 23 22 22 22 21 21 20 20 21 21 21 21 21 21 21 20 19 17 17 17 16 14 14 13 12 11 10 9 9 7 7 6 7 8 8 9 9 10 11 12 13 14 15 16 16 17 18 18
50 47 48 46 43 43 44 43 40 38 38 36 34 34 32 29 27 27 30 31 34 41 44 45 44 44 44 43 42 41 38 37 37 39 39 35 31 28 26 23 21 21 21 18 16 18 20 22 23 23 23 23 23 22 21 22 22 23 23 23 22 21 22 22 21 20 19 18 17 15 14 13 12 12 12 11 10 9 8 7 7 7 8 9 9 10 11 12 12 13 14 15 16 17 17 18 19
51 49 50 46 44 43 42 42 39 37 38 35 34 35 30 28 29 28 32 35 38 42 43 42 41 40 39 37 38 39 39 39 42 44 40 35 31 29 28 26 24 23 20 18 19 21 23 24 25 25 25 24 24 24 23 23 24 24 24 23 22 22 22 22 21 20 19 18 17 15 12 11 12 13 12 11 10 9 8 8 8 8 9 9 10 11 12 12 13 13 14 15 16 17 17 18 18
50 51 50 47 44 41 40 41 39 37 38 35 35 35 29 28 32 30 33 39 41 42 40 38 36 34 32 32 35 37 38 39 41 41 38 34 31 29 28 28 27 25 22 22 24 26 27 27 26 25 25 25 26 25 25 25 24 24 24 23 23 22 22 22 22 21 20 19 17 14 11 11 13 13 12 11 10 10 9 8 8 9 9 10 11 11 12 13 13 14 14 15 16 16 17 18 18
51 52 50 46 44 40 39 40 39 37 36 36 36 34 30 31 35 34 37 40 35 34 36 37 36 34 31 30 32 34 35 37 37 38 38 34 30 28 28 27 26 26 26 27 28 29 28 26 24 24 25 26 27 27 27 25 25 25 25 24 23 23 23 22 22 20 20 21 18 14 11 11 12 11 11 11 11 11 10 9 10 10 10 10 11 12 13 13 13 14 14 15 16 17 17 18 18
51 52 49 46 43 40 39 36 37 38 36 37 36 33 31 33 35 35 37 37 31 29 33 36 37 36 34 31 30 31 33 35 35 37 36 30 26 26 25 24 23 22 22 23 25 25 24 23 23 24 25 27 27 28 28 26 26 26 25 23 22 23 24 24 22 20 21 22 18 14 11 11 11 10 10 10 11 11 11 11 12 12 12 12 12 13 13 14 14 15 15 16 17 17 18 18 18
49 50 48 46 42 41 40 29 30 40 39 35 36 34 30 33 37 35 35 35 32 31 31 33 35 35 35 32 29 31 33 36 36 36 34 29 27 27 25 23 23 22 21 21 23 24 24 24 24 25 26 27 28 28 29 28 26 26 26 23 22 23 24 23 21 19 19 20 17 13 10 9 9 8 9 10 10 11 11 12 12 12 13 13 13 14 14 15 16 16 16 17 17 17 18 18 18
46 47 44 43 42 42 38 26 24 40 40 34 36 35 28 31 40 35 32 35 34 34 33 31 31 33 36 33 31 32 33 34 35 34 32 31 30 29 27 26 26 24 21 22 24 26 27 27 27 28 28 29 29 29 29 28 26 26 27 26 24 23 22 20 18 16 15 14 14 10 8 7 8 8 9 9 9 10 11 12 12 12 13 13 14 15 15 16 16 17 17 17 18 18 18 19 18
43 44 43 42 41 40 37 28 24 36 40 34 35 35 28 31 40 36 32 33 35 35 35 32 30 32 35 34 33 33 33 35 35 33 33 32 32 30 28 28 28 25 22 24 25 27 29 30 29 29 30 29 28 27 29 29 28 26 26 27 26 23 20 19 18 18 15 12 11 9 9 9 8 8 8 9 9 10 10 11 11 12 13 13 14 15 16 16 17 17 18 18 18 18 19 19 19
44 40 41 42 41 38 34 31 26 31 39 33 34 33 29 33 37 36 34 33 33 34 33 32 30 31 33 34 34 32 33 36 34 32 31 30 31 29 29 31 29 25 24 24 24 28 31 30 29 29 30 28 26 26 28 29 29 28 26 25 24 22 21 21 20 19 17 13 10 10 9 8 9 8 8 9 9 10 10 11 11 12 13 13 14 15 15 16 17 18 18 18 18 18 19 20 20
46 39 32 36 43 37 29 28 27 29 34 28 31 30 27 35 37 35 36 34 32 32 30 28 27 29 31 32 33 31 31 33 32 31 29 29 31 31 31 32 30 27 25 25 24 27 32 32 30 29 29 29 28 29 27 24 24 26 25 23 22 22 22 22 21 19 17 13 9 8 8 9 9 9 9 9 10 10 11 11 12 12 13 14 14 15 15 16 17 18 19 19 20 19 19 20 20
48 44 33 28 36 36 29 24 25 33 35 24 23 26 27 36 39 37 36 33 32 31 28 27 25 25 28 29 31 30 29 30 30 31 29 28 29 30 30 31 31 28 26 26 26 27 30 31 30 28 28 30 30 30 27 23 23 23 22 21 22 22 22 20 18 16 13 10 8 8 8 9 9 9 9 9 10 10 10 11 12 12 13 14 15 15 16 16 17 18 19 20 20 20 20 20 21
48 49 42 29 26 34 33 22 23 34 36 27 22 23 32 39 41 39 36 33 34 31 27 27 26 25 26 27 28 27 27 27 28 28 28 30 30 28 29 30 29 28 26 26 26 27 27 27 27 26 26 30 30 29 27 26 26 24 21 21 21 21 20 18 15 12 9 7 7 8 9 9 10 10 9 9 10 10 11 11 12 13 13 14 15 16 17 17 17 18 19 20 21 21 21 21 21
48 49 47 33 21 31 32 21 27 38 35 32 29 24 32 41 42 41 37 35 35 30 26 26 26 25 25 26 26 25 25 27 26 25 26 30 33 29 28 29 29 27 25 24 23 23 23 23 23 22 24 28 29 28 26 26 25 23 21 21 21 21 19 16 13 10 7 7 8 9 10 10 10 10 10 10 10 11 11 12 13 13 14 15 16 17 18 18 18 19 20 21 21 22 22 23 22
48 50 50 38 23 25 29 23 32 41 34 34 35 32 33 39 41 40 37 35 33 28 25 25 24 23 25 26 27 26 26 25 25 23 21 23 28 27 26 28 27 26 24 22 22 22 23 23 21 20 23 25 26 25 24 25 23 21 21 19 18 19 17 13 10 8 7 8 9 10 11 12 12 11 11 11 11 12 12 12 13 14 15 16 17 18 18 19 20 20 21 22 22 23 23 23 23
49 50 51 45 31 22 24 26 32 35 31 33 37 38 37 37 38 36 33 33 32 29 27 26 24 23 25 27 26 26 26 24 23 22 20 19 22 23 24 25 25 26 24 23 23 23 24 24 22 23 24 23 25 25 23 23 23 22 22 19 17 15 12 9 9 9 9 10 10 11 12 13 13 13 12 12 12 13 13 13 14 14 15 16 17 19 20 21 21 22 22 23 23 24 24 24 25
49 50 50 48 40 31 30 32 33 29 25 30 35 39 41 39 37 34 31 31 32 29 26 26 27 25 25 26 25 25 25 22 20 20 20 19 20 20 21 21 21 22 22 21 21 21 21 22 23 25 26 24 24 25 24 23 22 22 21 19 15 10 9 9 10 10 10 10 10 12 13 13 14 14 13 13 13 13 13 14 15 15 16 17 19 20 22 23 24 24 24 24 25 25 26 26 26
49 47 43 47 46 39 38 34 31 31 26 28 32 37 44 41 39 41 37 32 31 28 25 26 28 28 26 25 26 25 24 21 17 16 18 18 19 20 19 18 17 18 19 19 18 15 15 17 19 21 23 24 23 24 24 22 20 20 18 15 12 10 10 10 10 10 10 10 11 12 13 14 15 15 15 14 14 14 15 16 17 18 18 19 20 22 23 24 25 26 26 26 27 27 28 28 29
48 40 31 41 48 42 40 31 25 33 34 32 30 31 40 40 37 45 43 36 31 27 27 27 26 27 27 26 26 25 23 21 18 16 16 17 18 18 17 15 15 16 17 17 15 12 12 15 16 17 19 21 22 21 20 19 18 17 15 15 13 11 10 10 10 11 11 11 12 13 14 15 15 16 16 16 16 17 17 18 19 20 20 21 22 23 25 26 27 27 27 28 28 28 29 29 30
47 40 27 35 46 45 44 35 26 33 37 36 33 26 31 36 37 42 40 38 37 29 25 25 24 24 26 26 25 24 22 20 19 17 16 18 19 17 15 14 13 13 13 14 15 14 15 16 14 14 15 17 19 18 17 18 17 17 16 14 12 11 11 11 11 12 12 13 14 15 16 16 16 17 17 17 18 18 19 20 20 21 22 23 24 25 27 27 28 29 29 29 29 30 30 30 31
45 45 36 32 41 47 50 45 37 37 35 32 29 26 24 30 37 42 40 39 40 34 26 24 24 24 25 27 24 21 22 21 19 18 18 20 19 17 15 13 12 11 12 13 15 16 17 15 13 13 13 15 18 19 19 20 20 17 14 13 12 12 12 12 13 14 15 15 16 16 17 17 17 17 17 18 19 19 20 21 22 23 24 25 26 27 28 29 30 30 31 31 31 31 31 32 32
45 48 42 31 37 48 54 53 49 44 34 24 21 23 26 28 32 38 41 42 40 36 32 27 26 26 26 26 23 21 22 21 18 18 20 21 19 16 15 14 13 11 11 13 14 15 15 14 13 13 15 18 20 22 23 22 18 15 14 14 14 13 13 13 14 15 16 16 17 17 17 16 16 17 17 18 19 20 21 22 23 24 25 26 28 29 30 31 32 32 32 33 33 33 33 33 33
45 48 42 33 38 48 54 56 53 47 38 29 21 22 30 33 29 27 33 41 40 36 34 31 29 29 26 24 24 24 22 18 17 18 20 20 18 17 15 13 12 10 9 11 12 14 15 14 13 13 15 18 20 21 20 17 15 14 14 14 14 14 14 15 15 16 17 17 17 16 16 16 16 17 18 19 21 22 22 23 24 25 26 28 29 30 31 32 32 33 33 34 34 34 34 34 35
47 45 38 36 41 43 49 53 48 41 37 36 31 26 27 30 29 27 28 34 38 37 35 33 34 32 27 26 26 24 21 16 16 19 20 20 18 16 15 13 12 9 8 10 11 13 15 16 15 14 14 16 17 17 16 15 15 15 14 14 14 15 15 16 17 17 17 16 16 16 16 17 17 18 19 20 21 22 23 24 25 26 27 28 29 30 31 32 33 33 34 34 34 35 35 35 36
47 45 40 41 38 30 32 40 42 38 34 36 39 35 30 26 28 33 36 37 37 38 38 35 35 33 28 27 25 21 19 16 16 19 21 19 18 16 15 14 12 10 10 10 11 13 14 15 14 14 14 15 16 15 15 16 15 15 15 15 16 16 17 17 17 17 16 15 16 16 17 18 19 20 20 21 22 22 23 24 24 26 27 28 29 30 31 33 33 34 34 34 35 35 36 36 36
46 47 45 40 32 23 21 26 34 38 37 37 39 38 36 33 31 34 40 43 40 39 40 37 35 35 28 22 21 19 18 17 17 21 21 18 17 17 16 15 12 11 11 11 12 13 13 12 12 13 14 15 16 16 16 16 16 16 16 17 17 18 18 18 17 16 15 15 16 17 18 19 19 20 20 21 21 22 22 23 25 26 27 28 30 31 32 33 34 35 35 35 36 36 36 36 36
46 44 41 36 33 33 29 24 27 34 40 43 40 36 37 37 38 38 38 41 42 40 39 37 38 38 29 20 19 19 18 18 19 22 21 18 18 18 17 16 14 12 12 13 14 13 11 11 11 12 12 13 15 17 17 16 16 17 18 18 18 18 18 17 16 16 16 16 17 17 18 19 19 20 20 21 21 22 22 24 25 27 28 30 31 32 33 34 35 35 35 36 36 36 36 36 36
44 35 33 39 42 41 35 27 23 26 35 44 40 36 36 37 41 45 43 42 43 42 39 38 38 34 27 24 23 20 18 18 20 22 20 18 18 19 19 19 18 15 15 15 13 11 11 12 11 10 11 13 15 17 18 18 18 19 19 18 18 18 17 17 17 17 17 17 17 18 18 19 19 20 21 22 22 22 23 24 26 27 29 30 32 33 33 34 34 35 35 36 36 36 36 35 36
45 33 27 39 47 44 38 31 23 18 25 37 41 39 37 37 37 41 44 45 45 43 42 41 38 31 28 29 26 22 19 19 20 21 20 19 19 20 20 20 19 17 15 13 12 11 13 13 12 10 11 13 15 16 18 19 19 19 19 19 18 18 18 18 18 18 17 18 18 19 20 20 21 22 22 23 23 23 24 25 27 28 30 31 32 32 33 33 34 34 34 35 34 35 35 35 36
46 38 25 34 45 43 40 37 28 19 19 26 35 39 36 34 34 35 38 40 42 44 44 44 42 36 33 32 27 25 23 21 21 21 21 21 21 21 21 21 20 18 14 12 12 12 13 14 14 12 12 14 16 17 19 19 20 20 19 19 19 19 19 19 19 19 18 19 20 20 21 22 23 23 24 24 24 25 26 27 28 30 31 32 32 33 33 34 34 34 34 34 35 35 36 36 37
Wind_Direction
239 239 240 240 240 237 240 243 239 237 238 237 235 240 237 241 260 260 271 268 273 271 264 262 259 269 270 266 269 268 267 271 273 276 281 284 283 284 288 295 296 297 303 306 312 317 323 327 329 331 329 324 319 317 312 307 299 295 297 300 309 317 326 331 336 339 341 344 348 352 353 354 355 356 356 355 358 2 1 360 0 359 359 359 360 3 9 13 13 10 8 12 17 20 24 27 27
241 241 242 241 242 241 240 244 242 236 237 238 231 227 229 226 234 250 255 254 260 254 254 262 274 283 267 261 266 266 267 267 271 274 277 281 282 286 290 293 292 294 298 300 307 314 319 322 324 326 326 322 316 314 309 304 297 293 295 299 308 317 325 331 335 338 341 344 348 351 353 353 354 355 355 355 357 1 2 0 360 360 357 355 357 360 4 10 11 7 2 2 9 13 15 18 20
243 243 244 244 244 244 241 244 243 238 237 239 234 229 226 227 246 270 257 252 249 247 256 263 268 276 267 267 264 262 268 268 270 274 275 280 282 284 288 290 289 292 295 297 303 310 315 318 320 322 323 320 313 310 306 301 294 291 294 299 307 316 324 330 335 338 341 344 347 350 352 352 353 355 355 355 356 360 3 2 359 359 356 354 354 356 1 5 7 4 359 355 359 5 8 11 13
246 246 246 246 245 245 244 244 243 239 238 238 236 232 225 230 253 264 262 263 257 256 260 260 264 272 273 271 266 264 266 269 272 275 278 281 282 283 286 289 290 292 294 296 300 306 311 313 316 317 319 317 311 306 302 297 291 290 293 298 306 316 323 329 335 339 341 343 346 349 351 352 353 354 356 355 356 358 1 2 1 359 356 353 351 352 356 0 3 2 360 355 353 357 359 5 8
247 248 248 248 248 247 245 243 243 239 237 239 238 236 228 222 212 225 266 273 261 257 257 257 262 267 270 265 265 270 269 270 272 274 279 280 282 283 286 288 289 292 294 296 298 304 307 309 312 313 315 314 308 302 299 293 288 288 292 297 304 314 321 328 335 339 341 342 346 348 350 351 352 354 356 357 356 357 359 0 1 359 356 352 349 349 352 355 358 359 0 359 354 351 352 358 2
248 248 249 248 248 249 246 243 243 241 237 240 240 236 228 223 222 224 256 275 262 249 252 255 255 261 268 263 264 270 270 271 271 275 279 278 279 282 284 284 286 290 295 297 298 302 304 306 308 309 311 310 306 299 296 290 285 285 289 294 301 312 320 328 335 340 340 340 345 347 350 351 351 353 356 357 357 357 358 359 358 358 358 353 348 346 348 349 351 354 358 1 358 351 349 351 354
247 248 249 249 247 248 248 245 243 243 238 239 241 234 229 221 221 229 235 255 263 248 246 248 248 257 267 266 264 265 269 274 276 276 276 274 276 279 280 279 283 287 295 296 297 300 301 303 304 306 307 307 303 297 294 287 282 282 287 292 300 310 319 328 334 338 338 338 344 347 350 351 350 352 355 357 357 357 357 359 357 356 357 356 353 346 344 345 346 348 353 358 359 354 351 349 350
247 247 249 250 248 246 248 248 246 246 241 239 244 239 237 225 225 245 237 240 255 252 251 251 250 256 264 266 263 264 268 273 278 277 273 273 273 275 275 276 279 287 295 293 294 297 298 299 300 303 304 304 300 294 291 284 278 280 285 291 299 310 319 326 332 336 336 337 342 345 348 349 348 349 353 355 356 357 357 358 358 356 355 355 355 350 343 341 343 343 345 350 355 355 352 350 347
247 247 248 251 251 249 247 249 248 248 246 241 245 245 242 230 230 252 257 256 253 253 262 265 259 254 259 265 265 266 269 270 273 272 273 274 272 272 272 273 277 288 290 287 291 294 294 295 297 300 301 301 297 291 287 280 276 278 283 290 299 309 318 324 330 334 335 336 339 344 346 346 346 347 350 353 354 356 357 358 358 358 355 352 352 352 346 339 339 339 339 342 346 349 350 349 348
248 248 248 250 251 251 249 249 248 249 252 248 248 248 247 237 233 251 271 268 258 253 264 265 261 257 258 264 266 267 269 271 273 274 276 274 273 273 272 273 277 285 285 285 289 290 291 292 295 297 297 297 292 286 283 276 273 276 282 290 298 308 317 322 326 331 333 335 337 341 344 343 344 346 347 349 351 354 357 357 358 359 356 352 349 350 349 343 337 336 336 336 339 342 345 346 346
248 248 248 249 250 250 250 251 251 251 253 254 254 250 250 243 241 256 252 251 257 258 259 261 263 262 261 263 264 266 267 271 274 276 277 275 273 273 274 274 276 282 283 285 285 286 288 290 292 293 294 293 286 281 278 272 270 274 279 287 298 306 314 319 323 328 330 332 334 338 340 340 341 343 344 346 348 351 355 357 358 360 359 356 351 348 348 346 339 334 334 333 334 338 341 343 344
247 248 248 247 249 251 251 252 253 254 254 255 256 253 258 256 248 256 249 246 255 259 256 261 264 263 262 263 263 265 266 269 272 273 274 274 273 273 274 274 277 280 281 281 282 284 286 286 288 289 289 286 280 276 273 268 268 272 277 285 297 305 311 315 319 323 326 328 330 334 335 336 339 340 342 343 345 347 351 355 358 1 3 1 357 352 349 348 344 336 333 332 332 335 339 341 343
246 248 250 248 246 249 250 252 253 254 255 254 256 255 263 266 249 245 249 250 255 260 261 258 261 262 260 263 266 266 267 268 269 271 271 271 272 273 272 273 277 279 277 277 279 282 282 283 284 284 285 280 273 271 269 266 266 269 275 285 295 303 308 312 315 317 321 323 325 329 329 332 335 338 339 340 342 343 347 351 357 1 4 4 1 357 352 349 345 343 339 334 332 332 336 340 343
245 246 250 250 247 248 248 249 252 254 255 257 258 254 252 253 242 243 249 255 259 264 265 259 261 262 261 265 268 268 268 269 269 269 269 269 270 271 271 272 275 275 274 275 277 278 278 279 279 280 279 272 267 267 266 263 264 266 272 284 293 300 305 308 310 312 316 318 319 321 323 328 331 334 334 336 339 341 343 347 352 358 1 1 360 358 355 349 344 347 345 337 332 330 334 337 340
244 244 246 249 247 248 247 246 250 253 253 258 261 252 245 242 242 250 256 259 262 265 263 261 261 263 264 266 266 267 268 268 268 267 267 268 268 269 270 270 271 271 272 273 274 274 274 275 275 277 274 265 263 264 262 259 260 263 270 281 289 296 301 304 305 307 312 312 311 313 319 324 327 330 330 331 335 339 340 343 347 351 357 358 358 358 356 352 346 342 337 333 331 330 333 335 337
243 244 244 245 245 245 247 246 247 252 251 245 245 243 242 247 251 257 260 260 262 263 262 261 261 262 263 262 263 265 267 266 266 265 266 266 266 267 267 267 267 267 268 270 270 270 270 271 272 271 265 260 259 258 257 256 258 261 268 278 284 291 296 298 300 303 305 305 304 308 315 320 323 325 326 327 330 335 337 339 342 346 352 355 357 358 357 355 352 346 342 343 342 336 333 334 336
242 242 242 242 243 242 244 245 245 251 256 244 242 244 244 249 254 257 257 258 258 257 259 258 257 258 257 260 264 266 266 265 265 264 263 264 264 265 264 263 263 263 264 266 266 267 267 267 266 262 256 254 254 254 253 254 256 259 267 274 280 285 289 292 295 299 300 300 301 306 312 318 321 322 322 324 326 329 333 335 337 342 349 354 357 358 359 358 356 353 353 356 355 347 338 334 336
242 241 241 242 242 242 241 243 241 233 244 251 250 249 246 247 251 257 257 253 254 251 253 252 250 255 257 261 265 265 264 263 264 264 263 263 264 265 262 259 259 259 260 262 263 263 263 263 259 254 249 249 251 250 251 252 254 259 265 270 274 279 283 288 292 295 298 299 298 304 312 317 319 319 320 320 321 323 326 331 334 340 347 353 356 357 358 358 357 358 358 0 2 360 348 339 339
241 241 241 241 242 243 241 241 241 234 245 263 263 254 245 245 247 253 258 253 252 248 248 250 247 254 258 259 262 262 262 261 263 264 263 261 261 259 256 254 255 256 257 259 259 259 259 258 254 249 246 248 249 248 248 250 253 257 262 265 269 273 277 283 290 293 296 297 298 304 309 314 317 316 316 315 314 316 320 326 332 339 345 350 353 355 356 356 358 0 360 1 2 4 358 347 342
239 240 240 241 241 243 240 239 237 234 237 233 247 253 244 242 245 251 259 256 252 246 248 253 248 251 256 256 257 258 258 258 260 261 259 258 256 253 251 252 253 254 256 257 257 256 256 253 248 244 244 247 247 247 246 248 251 255 259 262 264 267 273 280 286 291 294 295 298 303 305 310 313 312 310 307 307 310 314 322 330 337 343 347 349 352 354 355 358 0 1 1 359 358 354 348 342
239 239 240 241 241 241 240 238 232 226 227 220 228 248 248 244 248 249 253 253 252 249 248 254 250 248 253 254 254 256 255 255 256 256 255 256 255 252 251 251 253 254 255 255 256 255 251 249 245 243 244 244 244 246 246 247 249 253 256 258 260 262 268 276 283 288 293 297 301 303 304 305 305 304 300 298 301 304 309 319 329 334 339 343 347 350 352 353 355 359 1 2 0 357 354 348 344
240 238 240 240 239 241 235 229 233 231 231 231 234 249 255 252 249 245 246 248 250 252 249 251 250 246 247 251 253 254 253 254 254 253 252 253 252 251 250 250 252 253 254 255 254 252 251 248 245 243 242 241 242 245 246 246 247 250 252 253 255 258 264 272 280 288 294 299 303 300 299 299 298 296 294 293 293 298 307 318 326 332 335 339 343 347 347 346 347 352 357 360 0 359 358 354 351
241 238 239 238 236 238 228 215 229 234 234 238 240 250 256 253 247 242 240 242 243 248 248 247 248 245 245 248 251 252 253 254 253 252 250 249 250 249 248 249 250 252 254 256 255 253 253 250 245 242 239 238 239 243 246 246 246 248 248 249 250 253 260 269 277 286 293 296 295 295 297 298 297 297 298 295 292 303 311 314 320 325 328 330 338 341 340 340 340 343 347 352 357 358 355 353 352
241 237 237 237 234 235 232 225 232 238 238 241 243 249 253 248 246 242 238 238 235 240 244 245 247 244 242 246 249 251 252 251 249 249 249 246 245 245 246 248 249 252 254 257 259 257 256 252 246 242 238 238 240 243 245 245 244 247 246 246 247 250 257 265 273 280 283 287 289 294 300 301 301 300 297 292 298 317 305 298 305 312 318 323 332 337 335 336 338 341 341 343 350 353 350 348 348
238 236 236 237 234 232 235 236 240 243 240 240 242 244 247 246 246 241 237 236 230 236 240 243 248 244 242 247 249 251 250 249 248 249 248 242 237 240 245 247 249 251 253 257 259 258 257 252 246 242 241 240 242 243 244 245 244 245 246 247 249 251 255 261 268 274 277 282 290 298 303 305 302 297 294 291 290 300 294 291 296 303 315 321 330 334 330 332 335 338 338 340 344 346 345 343 343
237 235 234 236 235 232 235 239 243 244 239 237 241 242 245 246 245 240 239 237 230 235 239 240 246 245 242 247 249 249 248 247 245 244 242 234 229 236 241 244 248 249 251 255 257 257 257 253 247 245 245 243 243 244 243 245 245 245 247 250 252 253 254 258 265 271 276 284 293 301 305 306 303 296 294 292 288 293 296 291 293 303 314 320 328 333 330 331 334 335 334 337 340 339 339 338 338
236 234 233 235 235 233 233 236 240 242 239 238 242 244 244 244 246 241 240 240 231 237 240 238 245 245 240 243 245 244 245 244 241 237 233 228 227 232 238 243 246 248 251 252 254 257 258 255 251 247 245 243 242 244 244 245 247 248 249 251 252 252 253 256 262 268 275 284 294 299 304 307 304 299 293 292 295 299 292 282 290 304 313 323 329 332 331 331 332 331 330 331 333 333 333 332 332
233 233 232 231 232 233 233 234 238 240 240 240 242 243 243 242 244 243 243 241 230 235 241 237 240 243 241 241 241 241 243 240 236 235 232 229 228 229 235 239 240 244 246 249 253 257 257 254 249 244 241 241 242 244 245 247 249 248 249 250 250 250 251 254 258 264 272 282 290 295 302 307 305 299 292 290 291 287 279 279 295 308 315 326 328 328 328 327 327 326 325 327 328 328 327 327 328
231 231 231 230 229 232 233 234 237 239 239 240 241 242 242 242 244 245 244 239 230 233 239 238 236 238 239 239 240 242 244 241 238 241 238 231 226 225 229 231 233 239 242 245 251 252 251 248 244 241 240 241 242 243 246 248 248 248 248 249 250 250 250 252 255 259 268 277 284 290 298 303 302 295 286 283 281 281 286 293 301 309 317 321 323 325 325 326 325 324 323 323 323 322 323 323 325
228 229 231 230 229 232 234 235 236 237 239 239 242 242 242 244 245 246 245 238 235 236 237 238 235 233 233 235 238 240 240 238 237 237 234 226 219 219 223 225 227 233 237 239 241 243 243 244 242 239 239 240 242 243 246 246 247 248 249 250 251 251 250 251 253 257 264 271 276 284 292 297 295 287 279 277 279 285 293 300 304 308 312 314 320 324 324 326 324 322 321 319 318 318 319 320 320
226 227 230 229 228 231 234 236 235 236 239 238 241 242 239 243 243 243 248 243 237 237 238 239 239 239 239 238 236 235 233 230 231 231 227 222 215 213 216 220 223 226 230 231 232 235 237 239 239 239 240 241 242 243 244 245 247 248 251 253 253 251 251 251 253 257 261 266 269 275 283 288 286 279 275 275 278 283 287 293 298 302 307 312 317 321 321 321 319 319 318 316 315 314 313 313 314
226 227 230 229 228 230 234 236 234 235 238 237 240 241 237 241 243 241 245 241 236 240 244 246 247 250 251 247 242 239 238 236 233 232 228 224 219 215 214 216 221 223 224 226 227 230 233 235 237 240 242 243 243 242 243 245 248 250 253 255 255 254 252 252 254 255 257 261 264 269 277 281 280 277 275 274 274 276 280 286 290 293 301 307 310 314 315 315 315 316 315 314 314 312 311 310 310
224 226 228 228 228 228 232 236 234 233 238 238 237 239 238 238 242 243 245 242 241 246 251 251 250 252 251 250 248 246 243 239 237 236 233 229 225 221 219 219 220 220 222 226 229 232 233 235 238 241 242 242 243 243 244 246 248 251 252 253 255 255 253 252 252 251 253 255 257 260 266 270 271 272 273 273 274 274 276 280 283 288 295 300 305 309 312 312 313 313 314 314 314 313 311 310 310
222 224 224 226 227 227 229 235 239 234 232 238 236 234 238 239 240 244 248 248 248 249 252 252 251 252 250 247 248 246 240 238 240 240 238 234 229 228 230 230 227 229 237 241 243 245 246 245 246 246 245 245 245 246 247 248 248 250 252 252 252 253 254 251 249 252 254 250 247 245 247 255 262 266 268 270 274 276 278 281 284 292 298 302 307 311 313 314 314 315 315 315 315 315 313 312 312
223 224 223 224 225 227 227 227 243 241 230 232 238 233 233 241 241 241 244 247 247 246 247 249 250 250 249 247 244 241 238 238 240 240 239 235 230 230 232 231 232 242 255 257 255 256 257 256 251 249 248 246 246 246 246 247 248 250 254 253 249 251 251 245 243 250 248 235 227 229 234 247 261 269 272 271 275 278 282 287 293 299 303 307 312 315 316 316 317 316 317 317 317 318 316 315 315
224 227 225 224 224 228 227 213 235 249 235 226 235 235 230 239 243 239 239 243 245 245 245 246 249 246 245 247 245 241 237 236 237 236 235 235 232 232 231 228 232 243 253 254 249 246 249 250 247 246 247 246 246 245 245 246 247 249 251 252 251 248 241 236 235 236 237 227 222 235 253 263 271 276 278 280 282 285 287 292 299 305 308 312 315 317 317 317 316 315 316 318 319 320 319 317 317
220 225 225 223 223 228 227 210 221 252 245 228 231 235 231 237 244 243 236 239 243 245 247 248 249 244 241 244 246 246 243 238 237 236 234 235 237 237 234 234 241 247 250 253 251 246 244 243 242 244 245 246 248 249 246 245 247 247 249 251 252 246 239 240 239 237 242 240 238 258 273 275 279 280 282 287 288 290 294 298 304 309 311 313 314 314 315 314 314 315 316 318 319 319 319 318 318
213 219 224 222 221 223 226 214 211 248 254 235 226 231 236 240 244 247 240 236 239 242 248 251 249 244 240 241 245 248 248 245 243 241 240 237 236 238 237 238 246 251 252 255 258 254 250 248 246 246 246 246 249 251 248 245 245 244 245 245 244 244 245 246 244 243 246 242 247 263 268 270 276 279 284 288 291 294 299 303 306 309 310 310 311 312 313 314 314 316 317 318 318 318 319 318 318
211 210 215 224 224 216 220 219 207 235 251 235 224 226 234 242 243 245 243 238 237 238 243 251 250 244 240 239 242 245 247 248 244 241 242 239 235 239 240 242 249 254 255 257 260 258 256 254 251 251 250 248 248 248 243 238 236 236 235 234 234 238 242 243 242 239 237 239 249 257 261 269 274 278 283 286 292 296 300 303 304 306 308 309 310 312 313 315 316 317 318 318 318 318 318 317 317
212 209 202 215 225 213 209 217 208 225 237 226 226 230 228 239 243 242 242 240 240 237 238 248 250 242 237 236 239 243 244 244 241 240 244 242 237 239 242 247 253 254 255 260 263 263 259 255 254 257 253 246 247 246 239 232 229 225 225 225 228 231 232 235 234 225 223 234 246 253 262 269 273 278 284 288 292 295 297 300 302 304 307 308 310 312 313 315 315 316 316 316 317 317 317 317 316
211 211 202 199 216 212 202 204 209 221 230 220 217 234 232 235 242 243 240 239 241 240 239 244 247 242 238 238 241 246 246 244 240 240 247 247 244 244 244 248 252 252 256 263 265 263 258 253 256 262 253 243 246 249 242 236 233 225 222 224 222 220 222 223 220 217 226 240 247 256 264 269 276 280 284 289 291 293 296 298 301 304 307 309 310 312 313 313 314 314 314 315 315 316 317 317 316
210 211 206 194 197 212 198 190 216 223 234 233 218 225 238 238 242 245 243 241 241 240 240 240 240 241 240 240 243 245 246 247 244 247 256 250 243 244 246 246 249 251 256 260 261 257 253 256 263 265 255 245 248 252 245 237 233 226 222 223 220 215 216 217 220 232 247 255 257 263 269 273 278 281 284 288 291 294 298 300 303 305 307 309 309 310 311 312 312 312 312 312 313 315 316 316 316
210 211 207 194 183 205 196 191 226 232 240 244 227 218 232 242 245 247 246 248 246 240 240 241 237 236 236 235 238 241 244 247 243 246 256 244 236 241 245 246 249 250 251 255 257 253 251 258 264 266 261 254 252 253 246 237 232 227 222 220 219 218 217 220 234 249 256 261 267 269 273 276 277 282 285 289 293 295 298 301 303 306 307 308 308 308 308 308 309 309 309 309 310 311 312 313 313
208 211 209 200 185 185 195 205 231 242 241 241 231 219 223 238 247 252 253 251 247 240 239 242 239 232 229 228 232 236 241 245 240 238 246 240 234 239 242 245 248 248 249 254 256 254 254 258 260 262 264 259 254 251 246 239 233 230 228 220 211 212 219 232 246 253 258 263 269 272 274 277 279 284 287 289 292 294 298 301 303 305 305 305 305 304 303 303 303 303 304 305 306 307 307 308 309
207 210 208 206 196 184 192 206 224 239 239 233 228 220 219 230 241 247 251 249 243 240 240 241 241 237 230 225 227 231 235 239 238 235 237 236 235 236 239 243 246 249 251 254 256 257 260 264 262 262 261 258 255 249 242 237 230 225 222 215 211 220 240 251 250 253 260 263 267 270 273 277 280 282 284 287 289 291 294 296 297 298 298 299 299 299 300 300 300 301 302 303 304 304 304 305 306
207 210 208 208 206 196 190 195 214 229 232 224 221 220 220 226 238 242 243 245 243 242 241 238 238 238 232 225 224 226 230 233 232 229 228 230 234 236 239 244 250 253 253 253 255 256 264 272 268 264 260 255 251 246 237 228 219 213 214 226 246 259 257 253 252 255 259 262 267 270 273 276 279 280 281 282 284 286 289 289 291 292 293 295 296 296 297 298 299 300 302 303 304 304 304 304 304
205 204 204 209 210 203 192 186 205 223 227 221 213 220 225 224 236 244 243 245 244 243 244 242 241 240 232 225 221 222 225 229 227 223 225 228 230 232 236 246 253 253 251 249 242 243 270 283 277 266 258 248 243 240 227 210 210 223 240 259 269 266 257 255 254 257 259 262 265 268 272 275 277 279 280 282 284 285 286 288 289 291 293 294 294 295 296 297 298 299 301 302 302 303 302 302 302
202 196 195 209 210 204 197 191 198 214 224 225 209 210 231 232 236 243 245 247 243 239 244 246 244 243 239 232 225 221 223 226 225 222 226 230 229 229 234 244 248 246 247 242 232 244 275 288 281 265 254 242 233 226 215 216 238 259 267 268 266 260 256 255 255 257 259 261 264 267 271 275 279 282 283 284 285 286 287 288 289 291 293 294 295 296 296 297 298 299 300 300 300 300 300 300 300
200 196 196 205 208 205 203 201 205 212 218 225 213 202 223 241 244 242 243 246 244 239 241 246 241 237 239 238 231 225 226 225 223 222 225 229 229 229 231 237 240 238 240 240 240 254 273 283 276 261 250 241 231 227 233 248 262 269 266 261 256 251 250 250 253 256 258 261 265 268 272 276 279 283 284 284 285 286 287 288 290 292 293 295 296 297 297 298 298 299 299 299 299 299 299 299 299
197 199 199 196 202 205 206 207 211 214 211 212 212 207 217 233 245 248 244 243 245 242 239 243 242 234 233 237 235 230 229 226 222 223 226 230 232 232 233 236 237 236 240 245 252 262 271 277 270 255 247 244 242 246 253 260 262 257 251 248 246 244 245 247 250 254 258 261 264 268 272 276 279 281 282 284 285 286 288 290 291 293 295 296 297 297 298 298 299 300 300 300 300 300 300 299 299
194 199 202 197 201 206 208 210 213 216 215 210 203 208 221 224 232 250 250 242 242 243 238 237 242 240 234 235 236 232 231 228 225 227 230 233 236 238 239 241 241 241 247 253 259 266 270 271 265 256 253 253 254 257 259 258 254 249 246 244 244 246 248 250 253 256 259 262 266 269 273 276 278 280 282 284 286 288 290 292 294 296 296 297 297 298 298 299 300 300 300 301 301 301 301 301 300
195 197 202 203 204 208 212 213 214 218 221 222 215 210 222 227 229 239 248 246 243 242 240 237 238 241 239 237 236 236 236 234 230 228 230 234 239 244 244 246 251 253 252 254 259 266 268 266 263 260 261 263 263 262 258 254 252 251 252 251 251 251 252 254 256 257 260 264 269 272 276 279 280 282 284 286 289 291 293 294 295 296 296 296 297 298 299 300 300 301 301 302 302 302 302 302 302
195 198 206 207 201 204 217 219 219 220 221 227 225 218 220 226 228 231 237 243 245 242 240 240 241 242 241 240 237 233 232 231 229 230 231 234 240 247 250 253 262 262 254 255 261 268 270 265 262 260 261 264 264 260 256 256 257 258 258 255 252 251 252 254 256 259 264 268 273 277 279 281 281 283 285 287 289 292 293 295 295 294 295 295 297 298 299 301 302 302 303 303 303 303 303 303 303
196 204 211 205 193 193 211 219 222 221 218 221 224 221 222 225 226 228 232 237 241 244 244 244 246 245 241 239 233 227 225 223 226 232 234 235 241 250 257 260 263 259 255 259 265 271 269 257 253 256 258 260 261 258 254 256 258 257 255 254 253 253 254 256 259 262 267 272 276 279 279 280 282 283 285 287 290 292 294 294 294 294 295 296 298 300 301 302 303 304 304 304 303 303 303 303 303
197 207 211 201 193 195 198 204 217 220 219 219 220 220 222 227 230 230 232 237 239 242 246 246 246 246 244 238 232 231 230 226 229 236 237 236 241 249 258 262 262 259 257 259 262 264 252 241 246 252 253 255 255 255 254 254 255 255 255 256 255 255 255 257 261 264 270 275 277 279 280 281 284 285 287 289 291 293 294 294 294 294 296 298 300 302 303 305 305 305 305 304 304 304 304 304 304
194 201 214 210 204 202 201 203 209 215 219 220 219 220 222 228 235 237 236 238 240 242 246 247 244 244 243 239 239 240 235 228 231 237 239 238 241 247 255 261 264 263 259 256 255 249 235 233 243 252 255 253 250 251 253 253 254 254 255 257 256 256 257 259 263 267 271 274 276 279 281 283 285 286 288 290 292 294 294 294 294 295 297 299 302 304 305 306 306 306 305 304 304 304 304 305 305
195 191 210 215 208 204 207 210 209 211 219 221 220 220 222 226 234 239 237 237 240 243 247 248 246 243 240 240 244 243 237 232 233 236 237 238 240 246 253 259 263 263 257 251 246 237 231 231 240 256 266 259 249 249 252 253 254 254 254 256 256 256 258 261 264 268 271 273 275 278 281 284 286 287 289 291 293 294 294 295 295 296 299 301 303 305 305 306 306 305 304 304 304 305 306 306 306
201 194 199 209 206 203 208 212 212 214 215 218 223 223 223 228 231 235 238 236 238 242 246 249 250 247 245 246 247 245 243 241 239 238 238 239 242 247 253 256 259 257 248 241 240 239 239 240 246 262 273 265 253 248 250 253 255 256 257 257 256 256 257 260 264 268 270 272 274 278 282 285 287 288 290 292 293 295 295 295 296 297 300 302 304 305 305 306 306 305 305 305 306 308 308 308 307